Weather History for Munising, MI

Change the Weather History Date:

Friday, November 23, 2012

  Actual Average (KISQ) Record (KISQ)
Temperature  
Mean Temperature 38 °F -  
Max Temperature 46 °F 36 °F 53 °F (1999)
Min Temperature 30 °F 23 °F 1 °F (1956)
Degree Days  
Heating Degree Days 27    
Moisture  
Dew Point 28 °F    
Average Humidity 79    
Maximum Humidity 86    
Minimum Humidity 69    
Precipitation  
Precipitation 0.42 in - - ()
Sea Level Pressure  
Sea Level Pressure 29.73 in    
Wind  
Wind Speed 19 mph (NW)    
Max Wind Speed 39 mph    
Max Gust Speed 56 mph    
Averages and records for this station are not official NWS values.
T = Trace of Precipitation, MM = Missing Value Source: NWS Daily Summary

Daily Weather History Graph

Daily Weather History Graph

Search for Another Location

Airport:

Trip Planner

Search our weather history database for the weather conditions in past years. The results will help you decide how hot, cold, wet, or windy it might be!

Date:

Astronomy

Nov. 23, 2012 Rise Set
Actual Time 7:59 AM EST 5:05 PM EST
Civil Twilight 7:26 AM EST 5:39 PM EST
Nautical Twilight 6:49 AM EST 6:16 PM EST
Astronomical Twilight 6:13 AM EST 6:52 PM EST
Moon 2:32 PM EST (11/23) 3:04 AM EST (11/23)
Length of Visible Light 10h 13m
Length of Day
9h 05m
Waxing Gibbous, 79% of the Moon is Illuminated
Nov 23
Waxing Gibbous
Nov 28
Full
Dec 6
Last Quarter
Dec 13
New
Dec 20
First Quarter

Hourly Weather History & Observations

Time (EST) Temp. Windchill Dew Point Humidity Pressure Visibility Wind Dir Wind Speed Gust Speed Precip Events Conditions
12:56 AM 46.9 °F - 41.0 °F 80% 29.48 in - NNW 10.4 mph - N/A   Unknown
1:56 AM 44.1 °F 36.8 °F 39.0 °F 82% 29.47 in - NW 16.1 mph 24.2 mph N/A   Unknown
2:56 AM 41.0 °F 35.2 °F 37.0 °F 86% 29.49 in - WNW 9.2 mph 16.1 mph 0.04 in   Unknown
3:56 AM 36.0 °F 29.0 °F 32.0 °F 86% 29.50 in - WNW 9.2 mph - 0.10 in   Unknown
4:56 AM 35.1 °F 29.3 °F 28.9 °F 78% 29.49 in - WSW 6.9 mph - N/A   Unknown
5:56 AM 32.0 °F 23.6 °F 28.0 °F 85% 29.50 in - WSW 10.4 mph 19.6 mph 0.04 in   Unknown
6:56 AM 35.1 °F 24.1 °F 28.9 °F 78% 29.52 in - NW 19.6 mph 26.5 mph 0.04 in   Unknown
7:56 AM 33.1 °F 20.9 °F 28.9 °F 85% 29.55 in - NNW 21.9 mph 41.4 mph 0.01 in   Unknown
8:56 AM 33.1 °F 21.5 °F 28.0 °F 82% 29.57 in - NNW 19.6 mph 34.5 mph 0.02 in   Unknown
9:56 AM 32.0 °F 18.6 °F 28.0 °F 85% 29.59 in - NNW 25.3 mph 44.9 mph 0.01 in   Unknown
10:56 AM 32.0 °F 17.2 °F 28.0 °F 85% 29.63 in - NNW 32.2 mph 48.3 mph 0.05 in   Unknown
11:56 AM 33.1 °F 17.8 °F 27.0 °F 78% 29.66 in - North 36.8 mph 54.1 mph 0.01 in   Unknown
12:56 PM 32.0 °F 16.7 °F 27.0 °F 82% 29.70 in - NNW 34.5 mph 55.2 mph 0.01 in   Unknown
1:56 PM 32.0 °F 16.0 °F 27.0 °F 82% 29.75 in - NNW 39.1 mph 56.4 mph 0.01 in   Unknown
2:56 PM 32.0 °F 17.0 °F 28.0 °F 85% 29.79 in - North 33.4 mph 46.0 mph 0.02 in   Unknown
3:56 PM 33.1 °F 20.1 °F 26.1 °F 75% 29.85 in - NNW 25.3 mph 46.0 mph 0.02 in   Unknown
4:56 PM 33.1 °F 19.8 °F 24.1 °F 70% 29.90 in - North 26.5 mph 43.7 mph N/A   Unknown
5:56 PM 32.0 °F 18.1 °F 27.0 °F 82% 29.94 in - NNW 27.6 mph 43.7 mph 0.01 in   Unknown
6:56 PM 30.9 °F 16.4 °F 27.0 °F 85% 29.97 in - NW 28.8 mph 44.9 mph 0.02 in   Unknown
7:56 PM 30.9 °F 16.9 °F 25.0 °F 79% 30.01 in - NNW 26.5 mph 51.8 mph N/A   Unknown
8:56 PM 32.0 °F 18.6 °F 23.0 °F 69% 30.02 in - NNW 25.3 mph 43.7 mph N/A   Unknown
9:56 PM 32.0 °F 17.9 °F 23.0 °F 69% 30.03 in - NNW 28.8 mph 41.4 mph 0.01 in   Unknown
10:56 PM 32.0 °F 17.9 °F 23.0 °F 69% 30.03 in - NNW 28.8 mph 41.4 mph N/A   Unknown
11:56 PM 32.0 °F 17.9 °F 23.0 °F 69% 30.04 in - NNW 28.8 mph 41.4 mph N/A   Unknown